JCSAT-13

Last updated on Mon Sep 15 2025 00:02:47 GMT+0000 (Coordinated Universal Time)

1 38331U 12023A 25257.25303008 -.00000368 00000+0 00000+0 0 9994 2 38331 0.0327 262.0864 0002740 280.9987 25.4927 1.00271632 48773
UTC large
Height (km)
Speed (km/s)
/
Latitude / Longitude
Inclination (degrees)
Orbital Period (minutes)
Azimuth
Elevation
Range (km)
Doppler Factor

Next 0 passes for location: London (51.5072 / 0.1276)

Sorry there are no passes over London.